| time (UTC) | temp F | wind direction | speed knots | gust knots | rain 1hr in | rain 24hr in | rain mn in | humidity % | barometer mb |
| 20260831225225 | 65 | 237 | 0.9 | 0.9 | 0.00 | 0.01 | 0.01 | 99 | 1073.1 |
| 20260831224221 | 65 | 272 | 0.0 | 0.0 | 0.00 | 0.01 | 0.01 | 99 | 1073.1 |
| 20260831223219 | 65 | 195 | 1.7 | 1.7 | 0.00 | 0.01 | 0.01 | 98 | 1073.1 |
| 20260831222216 | 65 | 260 | 0.0 | 0.0 | 0.00 | 0.01 | 0.01 | 97 | 1073.3 |
| 20260831221212 | 66 | 250 | 0.0 | 0.9 | 0.00 | 0.01 | 0.01 | 96 | 1073.1 |
| 20260831220208 | 66 | 237 | 0.9 | 0.9 | 0.00 | 0.01 | 0.01 | 95 | 1073.4 |
| 20260831215205 | 66 | 245 | 0.9 | 0.9 | 0.00 | 0.01 | 0.01 | 95 | 1073.5 |
| 20260831214204 | 66 | 197 | 1.7 | 1.7 | 0.00 | 0.01 | 0.01 | 95 | 1073.5 |
| 20260831213201 | 66 | 204 | 1.7 | 1.7 | 0.00 | 0.01 | 0.01 | 95 | 1073.5 |
| 20260831212159 | 66 | 254 | 0.0 | 0.9 | 0.00 | 0.01 | 0.01 | 95 | 1073.8 |
| 20260831211159 | 66 | 259 | 0.0 | 0.9 | 0.00 | 0.01 | 0.01 | 95 | 1073.6 |
| 20260831210155 | 66 | 262 | 0.0 | 0.0 | 0.00 | 0.01 | 0.01 | 95 | 1073.8 |
| 20260831205150 | 65 | 237 | 0.0 | 0.0 | 0.00 | 0.01 | 0.01 | 96 | 1073.6 |
| 20260831204149 | 65 | 255 | 0.0 | 0.9 | 0.05 | 0.01 | 0.01 | 98 | 1073.7 |
| 20260831203149 | 66 | 201 | 1.7 | 1.7 | 0.00 | 0.00 | 0.00 | 98 | 1073.9 |
| 20260831202149 | 66 | 274 | 0.9 | 0.9 | 0.00 | 0.00 | 0.00 | 97 | 1073.8 |
| 20260831201148 | 66 | 255 | 0.9 | 0.9 | 0.00 | 0.00 | 0.00 | 97 | 1073.6 |
| 20260831200144 | 66 | 262 | 0.0 | 0.0 | 0.00 | 0.00 | 0.00 | 98 | 1073.8 |
| 20260831195140 | 65 | 266 | 0.0 | 0.0 | 0.00 | 0.00 | 0.00 | 99 | 1073.8 |
| 20260831194137 | 64 | 250 | 0.0 | 0.0 | 0.00 | 0.00 | 0.00 | 99 | 1073.9 |
| 20260831193132 | 64 | 255 | 1.7 | 1.7 | 0.00 | 0.00 | 0.00 | 99 | 1074.1 |
| 20260831192129 | 64 | 272 | 0.9 | 0.9 | 0.00 | 0.00 | 0.00 | 99 | 1074.1 |
| 20260831191126 | 66 | 276 | 1.7 | 1.7 | 0.00 | 0.00 | 0.00 | 96 | 1074.3 |
| 20260831190126 | 68 | 276 | 1.7 | 1.7 | 0.00 | 0.00 | 0.00 | 91 | 1074.5 |
| 20260831185123 | 68 | 272 | 0.9 | 0.9 | 0.00 | 0.00 | 0.00 | 90 | 1074.2 |
| 20260831184119 | 68 | 256 | 0.0 | 0.0 | 0.00 | 0.00 | 0.00 | 89 | 1074.2 |
| 20260831183118 | 68 | 273 | 0.9 | 0.9 | 0.00 | 0.00 | 0.00 | 88 | 1074.5 |
| 20260831182113 | 68 | 269 | 0.9 | 0.9 | 0.00 | 0.00 | 0.00 | 90 | 1074.6 |
| 20260831181113 | 67 | 265 | 0.9 | 0.9 | 0.00 | 0.00 | 0.00 | 91 | 1074.5 |
| 20260831180109 | 67 | 278 | 0.0 | 0.0 | 0.00 | 0.00 | 0.00 | 94 | 1074.6 |
| 20260831175107 | 67 | 258 | 0.0 | 0.9 | 0.00 | 0.00 | 0.00 | 95 | 1074.6 |
| 20260831174107 | 67 | 265 | 2.6 | 2.6 | 0.00 | 0.00 | 0.00 | 92 | 1074.9 |
| 20260831173102 | 68 | 265 | 1.7 | 1.7 | 0.00 | 0.00 | 0.00 | 91 | 1075.0 |
| 20260831172057 | 68 | 275 | 0.9 | 0.9 | 0.00 | 0.00 | 0.00 | 90 | 1075.1 |
| 20260831171055 | 68 | 275 | 4.3 | 4.3 | 0.00 | 0.00 | 0.00 | 89 | 1075.1 |
| 20260831170054 | 68 | 266 | 1.7 | 1.7 | 0.00 | 0.00 | 0.00 | 90 | 1075.1 |
| 20260831165051 | 68 | 252 | 2.6 | 4.3 | 0.00 | 0.00 | 0.00 | 90 | 1074.9 |
| 20260831164048 | 67 | 267 | 0.9 | 1.7 | 0.00 | 0.00 | 0.00 | 90 | 1075.0 |
| 20260831163044 | 68 | 256 | 3.5 | 4.3 | 0.00 | 0.00 | 0.00 | 90 | 1075.1 |
| 20260831162041 | 69 | 275 | 0.9 | 0.9 | 0.00 | 0.00 | 0.00 | 88 | 1075.3 |
| 20260831161040 | 68 | 268 | 0.9 | 0.9 | 0.00 | 0.00 | 0.00 | 87 | 1075.1 |
| 20260831160035 | 68 | 249 | 0.9 | 0.9 | 0.00 | 0.00 | 0.00 | 88 | 1075.3 |
| 20260831155030 | 68 | 205 | 0.9 | 0.9 | 0.00 | 0.00 | 0.00 | 89 | 1075.2 |
| 20260831154026 | 68 | 241 | 0.9 | 0.9 | 0.00 | 0.00 | 0.00 | 90 | 1075.3 |
| 20260831153023 | 68 | 277 | 0.0 | 0.9 | 0.00 | 0.00 | 0.00 | 88 | 1075.2 |
| 20260831152019 | 68 | 200 | 2.6 | 2.6 | 0.00 | 0.00 | 0.00 | 89 | 1075.2 |
| 20260831151019 | 68 | 201 | 1.7 | 1.7 | 0.00 | 0.00 | 0.00 | 91 | 1075.4 |
| 20260831150016 | 67 | 264 | 0.9 | 0.9 | 0.00 | 0.00 | 0.00 | 92 | 1075.4 |
| 20260831145012 | 67 | 257 | 3.5 | 4.3 | 0.00 | 0.00 | 0.00 | 91 | 1075.2 |
| 20260831144009 | 67 | 199 | 2.6 | 2.6 | 0.00 | 0.00 | 0.00 | 92 | 1075.2 |
| 20260831143005 | 66 | 243 | 0.9 | 0.9 | 0.00 | 0.00 | 0.00 | 92 | 1075.3 |
| 20260831142002 | 67 | 232 | 0.9 | 0.9 | 0.00 | 0.00 | 0.00 | 93 | 1075.1 |
| 20260831140956 | 66 | 254 | 0.9 | 0.9 | 0.00 | 0.00 | 0.00 | 93 | 1075.6 |
| 20260831135955 | 66 | 250 | 0.9 | 0.9 | 0.00 | 0.00 | 0.00 | 97 | 1075.4 |
| 20260831134954 | 65 | 196 | 0.9 | 1.7 | 0.00 | 0.00 | 0.00 | 96 | 1075.4 |
| 20260831133951 | 64 | 223 | 0.9 | 0.9 | 0.00 | 0.00 | 0.00 | 99 | 1075.4 |
| 20260831132946 | 64 | 253 | 0.9 | 0.9 | 0.00 | 0.00 | 0.00 | 99 | 1075.4 |
| 20260831131941 | 63 | 210 | 0.9 | 1.7 | 0.00 | 0.00 | 0.00 | 99 | 1075.4 |
| 20260831130938 | 62 | 154 | 1.7 | 1.7 | 0.00 | 0.00 | 0.00 | 99 | 1075.8 |
| 20260831125933 | 62 | 174 | 1.7 | 1.7 | 0.00 | 0.00 | 0.00 | 99 | 1075.6 |
| 20260831124929 | 61 | 259 | 0.0 | 0.0 | 0.00 | 0.00 | 0.00 | 99 | 1076.1 |
| 20260831123926 | 61 | 262 | 0.0 | 0.0 | 0.00 | 0.00 | 0.00 | 99 | 1076.0 |
| 20260831122925 | 61 | 226 | 0.9 | 0.9 | 0.00 | 0.00 | 0.00 | 99 | 1075.9 |
| 20260831121921 | 60 | 266 | 0.0 | 0.0 | 0.00 | 0.00 | 0.00 | 99 | 1076.0 |
| 20260831120919 | 60 | 250 | 0.0 | 0.9 | 0.00 | 0.00 | 0.00 | 99 | 1075.9 |
| 20260831115919 | 60 | 244 | 0.9 | 0.9 | 0.00 | 0.00 | 0.00 | 99 | 1076.1 |
| 20260831114915 | 60 | 243 | 0.9 | 0.9 | 0.00 | 0.00 | 0.00 | 99 | 1076.0 |
| 20260831113910 | 59 | 205 | 0.9 | 0.9 | 0.00 | 0.00 | 0.00 | 99 | 1075.8 |
| 20260831112905 | 59 | 262 | 0.0 | 0.0 | 0.00 | 0.00 | 0.00 | 99 | 1075.7 |
| 20260831111900 | 59 | 261 | 0.9 | 0.9 | 0.00 | 0.00 | 0.00 | 99 | 1075.8 |
| 20260831110858 | 59 | 271 | 0.9 | 0.9 | 0.00 | 0.00 | 0.00 | 99 | 1075.7 |
| 20260831105857 | 59 | 271 | 0.9 | 0.9 | 0.00 | 0.00 | 0.00 | 99 | 1075.2 |
| 20260831104853 | 59 | 91 | 1.7 | 1.7 | 0.00 | 0.00 | 0.00 | 99 | 1075.2 |
| 20260831103849 | 60 | 255 | 0.0 | 0.0 | 0.00 | 0.00 | 0.00 | 99 | 1075.2 |
| 20260831102846 | 59 | 266 | 0.0 | 0.0 | 0.00 | 0.00 | 0.00 | 99 | 1075.2 |
| 20260831101842 | 59 | 264 | 0.0 | 0.0 | 0.00 | 0.00 | 0.00 | 99 | 1075.1 |
| 20260831100839 | 59 | 266 | 0.0 | 0.0 | 0.00 | 0.00 | 0.00 | 99 | 1075.0 |
| 20260831095834 | 59 | 276 | 0.0 | 0.0 | 0.00 | 0.00 | 0.00 | 99 | 1074.9 |
| 20260831094829 | 59 | 270 | 0.0 | 0.0 | 0.00 | 0.00 | 0.00 | 99 | 1074.9 |
| 20260831093826 | 59 | 270 | 0.0 | 0.0 | 0.00 | 0.00 | 0.00 | 99 | 1074.7 |
| 20260831092823 | 60 | 245 | 0.0 | 0.0 | 0.00 | 0.00 | 0.00 | 99 | 1074.9 |
| 20260831091819 | 59 | 268 | 0.0 | 0.0 | 0.00 | 0.00 | 0.00 | 99 | 1074.7 |
| 20260831090816 | 59 | 321 | 0.0 | 0.9 | 0.00 | 0.00 | 0.00 | 99 | 1074.5 |
| 20260831085814 | 59 | 277 | 0.0 | 0.0 | 0.00 | 0.00 | 0.00 | 99 | 1074.4 |
| 20260831084809 | 59 | 283 | 0.0 | 0.0 | 0.00 | 0.00 | 0.00 | 99 | 1074.6 |
| 20260831083807 | 60 | 287 | 0.0 | 0.0 | 0.00 | 0.00 | 0.00 | 99 | 1074.4 |
| 20260831082807 | 60 | 288 | 0.0 | 0.0 | 0.00 | 0.00 | 0.00 | 99 | 1074.6 |
| 20260831081803 | 61 | 303 | 0.0 | 0.0 | 0.00 | 0.00 | 0.00 | 99 | 1074.7 |
| 20260831080800 | 62 | 87 | 0.9 | 1.7 | 0.00 | 0.00 | 0.00 | 99 | 1074.7 |
| 20260831075757 | 61 | 272 | 0.0 | 0.0 | 0.00 | 0.00 | 0.00 | 99 | 1074.7 |
| 20260831074758 | 61 | 277 | 0.0 | 0.0 | 0.00 | 0.00 | 0.00 | 99 | 1074.7 |
| 20260831073753 | 61 | 271 | 0.0 | 0.0 | 0.00 | 0.00 | 0.00 | 99 | 1074.6 |
| 20260831072752 | 61 | 277 | 0.0 | 0.0 | 0.00 | 0.00 | 0.00 | 99 | 1075.0 |
| 20260831071749 | 61 | 278 | 0.0 | 0.0 | 0.00 | 0.00 | 0.00 | 99 | 1074.8 |
| 20260831070744 | 61 | 277 | 0.0 | 0.0 | 0.00 | 0.00 | 0.00 | 99 | 1074.8 |
| 20260831065742 | 61 | 277 | 0.0 | 0.0 | 0.00 | 0.00 | 0.00 | 99 | 1074.7 |
| 20260831064742 | 61 | 277 | 0.0 | 0.0 | 0.00 | 0.00 | 0.00 | 99 | 1074.8 |
| 20260831063739 | 61 | 278 | 0.0 | 0.0 | 0.00 | 0.00 | 0.00 | 99 | 1074.6 |
| 20260831062739 | 61 | 277 | 0.0 | 0.0 | 0.00 | 0.00 | 0.00 | 99 | 1074.6 |
| 20260831061738 | 61 | 277 | 0.0 | 0.0 | 0.00 | 0.00 | 0.00 | 99 | 1074.9 |
| 20260831060736 | 61 | 277 | 0.0 | 0.0 | 0.00 | 0.00 | 0.00 | 99 | 1075.0 |
| 20260831055735 | 61 | 269 | 0.0 | 0.0 | 0.00 | 0.00 | 0.00 | 99 | 1075.1 |
| 20260831054730 | 61 | 278 | 0.0 | 0.0 | 0.00 | 0.00 | 0.00 | 99 | 1075.2 |
| 20260831053725 | 61 | 277 | 0.0 | 0.0 | 0.00 | 0.00 | 0.00 | 99 | 1075.2 |
| 20260831052723 | 61 | 277 | 0.0 | 0.0 | 0.00 | 0.00 | 0.00 | 99 | 1074.8 |
| 20260831051721 | 61 | 277 | 0.0 | 0.0 | 0.00 | 0.00 | 0.00 | 99 | 1074.8 |
| 20260831050720 | 61 | 280 | 0.0 | 0.0 | 0.00 | 0.00 | 0.00 | 99 | 1074.9 |
| 20260831045720 | 61 | 278 | 0.0 | 0.0 | 0.00 | 0.00 | 0.00 | 99 | 1075.0 |
| 20260831044715 | 61 | 277 | 0.0 | 0.0 | 0.00 | 0.00 | 0.00 | 99 | 1074.9 |
| 20260831043712 | 61 | 279 | 0.0 | 0.0 | 0.00 | 0.00 | 0.00 | 99 | 1075.0 |
| 20260831042712 | 61 | 272 | 0.0 | 0.0 | 0.00 | 0.00 | 0.00 | 99 | 1075.3 |
| 20260831041708 | 61 | 272 | 0.0 | 0.0 | 0.00 | 0.00 | 0.00 | 99 | 1075.2 |
| 20260831040703 | 61 | 272 | 0.0 | 0.0 | 0.00 | 0.00 | 0.00 | 99 | 1075.0 |
| 20260831035700 | 61 | 270 | 0.0 | 0.0 | 0.00 | 0.04 | 0.04 | 99 | 1075.0 |
| 20260831034700 | 61 | 270 | 0.0 | 0.0 | 0.00 | 0.04 | 0.04 | 99 | 1075.0 |
| 20260831033657 | 61 | 268 | 0.0 | 0.9 | 0.00 | 0.04 | 0.04 | 99 | 1074.9 |
| 20260831032657 | 61 | 261 | 0.9 | 0.9 | 0.00 | 0.04 | 0.04 | 99 | 1075.0 |
| 20260831031653 | 61 | 271 | 0.0 | 0.0 | 0.00 | 0.04 | 0.04 | 99 | 1075.1 |
| 20260831030651 | 61 | 263 | 0.9 | 0.9 | 0.00 | 0.04 | 0.04 | 99 | 1074.9 |
| 20260831025649 | 61 | 268 | 0.0 | 0.0 | 0.00 | 0.04 | 0.04 | 99 | 1074.8 |
| 20260831024647 | 61 | 272 | 0.0 | 0.0 | 0.00 | 0.04 | 0.04 | 99 | 1074.9 |
| 20260831023644 | 61 | 271 | 0.0 | 0.0 | 0.00 | 0.04 | 0.04 | 99 | 1074.9 |
| 20260831022638 | 61 | 263 | 0.0 | 0.9 | 0.00 | 0.04 | 0.04 | 99 | 1075.0 |
| 20260831021638 | 61 | 268 | 0.0 | 0.0 | 0.00 | 0.04 | 0.04 | 99 | 1074.7 |
| 20260831020635 | 61 | 264 | 0.0 | 0.9 | 0.00 | 0.04 | 0.04 | 99 | 1074.7 |
| 20260831015631 | 61 | 265 | 0.9 | 0.9 | 0.00 | 0.04 | 0.04 | 99 | 1074.7 |
| 20260831014631 | 61 | 263 | 0.0 | 0.0 | 0.00 | 0.04 | 0.04 | 99 | 1074.7 |
| 20260831013629 | 61 | 272 | 0.0 | 0.0 | 0.00 | 0.04 | 0.04 | 99 | 1074.7 |
| 20260831012629 | 61 | 263 | 0.9 | 0.9 | 0.00 | 0.04 | 0.04 | 99 | 1074.7 |
| 20260831011630 | 61 | 263 | 0.0 | 0.0 | 0.00 | 0.04 | 0.04 | 99 | 1074.3 |
| 20260831010627 | 61 | 259 | 0.0 | 0.0 | 0.00 | 0.04 | 0.04 | 99 | 1074.3 |
| 20260831005622 | 61 | 271 | 0.0 | 0.0 | 0.00 | 0.04 | 0.04 | 99 | 1074.2 |
| 20260831004619 | 61 | 271 | 0.0 | 0.0 | 0.00 | 0.04 | 0.04 | 99 | 1074.3 |
| 20260831003617 | 61 | 268 | 0.0 | 0.0 | 0.00 | 0.04 | 0.04 | 99 | 1074.2 |
| 20260831002616 | 61 | 258 | 0.0 | 0.0 | 0.00 | 0.04 | 0.04 | 99 | 1073.9 |
| 20260831001613 | 61 | 269 | 0.0 | 0.9 | 0.00 | 0.04 | 0.04 | 99 | 1074.0 |
| 20260831000611 | 61 | 271 | 0.0 | 0.0 | 0.00 | 0.04 | 0.04 | 99 | 1073.8 |
| 20260830235610 | 61 | 259 | 0.9 | 0.9 | 0.07 | 0.04 | 0.04 | 99 | 1073.7 |
| 20260830234605 | 61 | 267 | 0.0 | 0.0 | 0.00 | 0.03 | 0.03 | 99 | 1073.5 |
| 20260830233602 | 61 | 271 | 0.0 | 0.9 | 0.00 | 0.03 | 0.03 | 99 | 1073.7 |
| 20260830232559 | 61 | 274 | 0.9 | 0.9 | 0.00 | 0.03 | 0.03 | 99 | 1073.3 |
| 20260830231557 | 61 | 259 | 0.9 | 0.9 | 0.00 | 0.03 | 0.03 | 99 | 1073.1 |
| 20260830230551 | 61 | 277 | 0.0 | 0.0 | 0.00 | 0.03 | 0.03 | 99 | 1073.5 |